Flag for India Weather past 2 weeks in Thiruvananthapuram, Kerala, India

Now
82 °F

Broken clouds.


Feels Like: 89 °F
Forecast: 80 / 88 °F
Wind: 9 mph from Southwest

Location: Thiruvananthapuram

Current Time: May 24, 2015 at 7:11:32 PM

Latest Report: May 24, 2015 at 6:40 PM


Visibility: 2 mi

Pressure: 29.80 "Hg

Humidity: 79%

Dew point: 75 °F

Location of ThiruvananthapuramLocation

Historic Weather in Thiruvananthapuram — Graph

°F

Thiruvananthapuram temperature yesterday

Maximum temperature yesterday: 91 °F (at 12:10 PM)
Minimum temperature yesterday: 79 °F (at 2:40 AM)
Average temperature yesterday: 86 °F

Past Weeks' High & Low Weather Summary

 TemperatureHumidityPressure
High91 °F (May 22, 3:10 PM)100% (May 11, 9:40 AM)29.86 "Hg (May 11, 9:40 AM)
Low73 °F (May 11, 9:40 AM)59% (May 23, 12:10 PM)29.65 "Hg (May 10, 4:10 PM)
Average81 °F81%29.76 "Hg
* Reported May 9 6:10 PM — May 24 5:40 PM, Thiruvananthapuram, Weather by CustomWeather, © 2015

Note: Actual official high and low records may vary slightly from our data, if they occured in-between our weather recording intervals... More about our weather records

Advertising

Thiruvananthapuram weather history for previous 24 hours

 ConditionsComfort  
Time TempWeatherWind HumidityBarometerVisibility
5:40 PM
Sun, May 24
84 °FBroken clouds.6 mph74%29.77 "Hg3 mi
5:10 PM84 °FBroken clouds.9 mph79%29.77 "Hg3 mi
4:40 PM84 °FThunderstorms. Cloudy.9 mph79%29.77 "Hg3 mi
4:10 PM86 °FThunderstorms. Cloudy.12 mph75%29.77 "Hg3 mi
3:40 PM86 °FThunderstorms. Cloudy.10 mph75%29.77 "Hg3 mi
3:10 PM88 °FScattered clouds.12 mph70%29.77 "Hg4 mi
2:10 PM88 °FScattered clouds.12 mph70%29.80 "Hg4 mi
1:40 PM88 °FScattered clouds.12 mph70%29.80 "Hg3 mi
1:10 PM90 °FScattered clouds.12 mph67%29.83 "Hg3 mi
12:40 PM88 °FScattered clouds.9 mph70%29.83 "Hg3 mi
12:10 PM88 °FScattered clouds.13 mph70%29.86 "Hg3 mi
9:40 AM84 °FScattered clouds.6 mph79%29.86 "Hg2 mi
8:40 AM86 °FScattered clouds.3 mph79%29.86 "Hg3 mi
8:10 AM84 °FScattered clouds.3 mph79%29.83 "Hg3 mi
7:40 AM82 °FScattered clouds.3 mph74%29.83 "Hg2 mi
7:10 AM82 °FScattered clouds.5 mph74%29.80 "Hg2 mi
6:40 AM81 °FScattered clouds.3 mph79%29.80 "Hg2 mi
6:10 AM79 °FPassing clouds.5 mph84%29.80 "Hg2 mi
5:40 AM79 °FPassing clouds.7 mph84%29.80 "Hg2 mi
5:10 AM79 °FPassing clouds.8 mph84%29.80 "Hg2 mi
4:40 AM79 °FPassing clouds.6 mph84%29.80 "Hg2 mi
2:40 AM81 °FPassing clouds.7 mph79%29.77 "Hg2 mi
2:10 AM81 °FPassing clouds.6 mph79%29.80 "Hg2 mi
1:40 AM81 °FPassing clouds.7 mph79%29.80 "Hg2 mi
1:10 AM81 °FPassing clouds.6 mph79%29.80 "Hg2 mi
12:40 AM81 °FPassing clouds.8 mph79%29.83 "Hg2 mi
11:40 PM
Sat, May 23
82 °FPassing clouds.5 mph74%29.83 "Hg2 mi
10:40 PM82 °FPassing clouds.9 mph74%29.83 "Hg2 mi
9:10 PM84 °FPassing clouds.7 mph70%29.83 "Hg2 mi
8:40 PM84 °FPassing clouds.7 mph74%29.83 "Hg2 mi
8:10 PM84 °FPassing clouds.9 mph74%29.80 "Hg2 mi
7:40 PM84 °FPassing clouds.8 mph74%29.80 "Hg2 mi
7:10 PM84 °FPassing clouds.8 mph74%29.80 "Hg2 mi
Weather by CustomWeather, © 2015

See weather overviewHow to use our weather pages